Location: Newark
(46.1292°N, 1.0086°W)
Time: 11:23:13
(UTC+00:00)

Vanguard 3 - Pass Details

Date: 17 November 2019
Orbit: 508 x 3263 km, 33.3° (Epoch: 10 December)

Event Time Altitude Azimuth Distance (km) Brightness Sun altitude
Rises 12:34:38 0° 208° (SSW) 6,817 13.1 24.1°
Reaches altitude 10° 12:39:54 10° 198° (SSW) 6,022 13.6 23.9°
Maximum altitude 12:55:17 30° 147° (SSE) 4,651 11.8 23.2°
Drops below altitude 10° 13:09:24 10° 95° (E) 5,571 11.3 22.4°
Sets 13:13:56 0° 86° (E) 6,262 11.4 22.1°
